Location: Curries
(43.0713°N, 80.7206°W)
Time: 03:07:54
(UTC+00:00)

X-37B - Visible Passes

Search period start: 21 January 2022 00:00
Search period end: 31 January 2022 00:00
Orbit: 334 x 337 km, 45.0° (Epoch: 11 January)

Date Brightness Start Highest point End Pass type
(mag) Time Alt. Az. Time Alt. Az. Time Alt. Az.
26 Jan 3.3 00:35:55 10° SW 00:36:23 13° SSW 00:36:23 13° SSW visible
26 Jan 2.6 23:22:11 10° S 23:23:43 14° SE 23:24:58 11° ESE visible
27 Jan 3.8 00:56:00 10° WSW 00:56:12 11° WSW 00:56:12 11° WSW visible
27 Jan 1.4 23:41:21 10° SW 23:43:55 31° SSE 23:44:42 26° ESE visible
29 Jan 0.2 00:01:26 10° WSW 00:04:15 69° SSE 00:04:24 67° SE visible
30 Jan 1.3 00:21:53 10° W 00:24:02 46° WNW 00:24:02 46° WNW visible
30 Jan 0.4 23:06:52 10° WSW 23:09:41 68° SSE 23:12:26 11° ENE visible
